Flag for Germany Weather past 2 weeks in Achern, Baden-Württemberg, Germany

34 °F


Feels Like: 34 °F
Forecast: 28 / 42 °F
Wind: 2 mph from North

Location: Karlsruhe - Baden Wurttemberg

Current Time: Nov 27, 2015 at 3:21:03 PM

Latest Report: Nov 27, 2015 at 2:50 PM

Visibility: 0 mi

Pressure: 30.07 "Hg

Humidity: 93%

Dew point: 32 °F

Location of AchernLocation

Historic Weather in Achern — Graph


Achern temperature yesterday

Maximum temperature yesterday: 43 °F (at 1:20 PM)
Minimum temperature yesterday: 32 °F (at 11:20 PM)
Average temperature yesterday: 39 °F

Past Weeks' High & Low Weather Summary

High63 °F (Nov 18, 5:20 AM)100% (Nov 13, 4:50 AM)30.48 "Hg (Nov 13, 4:50 AM)
Low23 °F (Nov 24, 6:20 AM)44% (Nov 14, 1:50 PM)29.42 "Hg (Nov 21, 11:50 AM)
Average46 °F78%30.03 "Hg
* Reported Nov 12 1:20 PM — Nov 27 1:50 PM, Achern, Weather by CustomWeather, © 2015

Note: Actual official high and low records may vary slightly from our data, if they occured in-between our weather recording intervals... More about our weather records


Achern weather history for previous 24 hours

Time TempWeatherWind HumidityBarometerVisibility
1:50 PM
Fri, Nov 27
32 °FFog.No wind100%30.09 "Hg1 mi
1:20 PM34 °FFog.2 mph93%30.09 "Hg1 mi
12:50 PM32 °FFog.1 mph100%30.09 "Hg1 mi
12:20 PM32 °FIce fog.No wind100%30.12 "Hg1 mi
11:50 AM32 °FIce fog.1 mph100%30.12 "Hg0 mi
11:20 AM32 °FIce fog.1 mph100%30.12 "Hg0 mi
10:50 AM32 °FIce fog.2 mph100%30.12 "Hg0 mi
10:20 AM32 °FIce fog.3 mph93%30.15 "Hg0 mi
9:50 AM30 °FIce fog.No wind100%30.12 "Hg0 mi
9:20 AM30 °FIce fog.2 mph100%30.15 "Hg0 mi
8:50 AM30 °FIce fog.2 mph100%30.15 "Hg0 mi
7:20 AM30 °FIce fog.2 mph100%30.15 "Hg0 mi
6:50 AM30 °FIce fog.2 mph100%30.15 "Hg0 mi
6:20 AM30 °FIce fog.3 mph100%30.15 "Hg0 mi
5:50 AM30 °FIce fog.1 mph100%30.15 "Hg0 mi
11:20 PM
Thu, Nov 26
32 °FFog.3 mph100%30.15 "Hg1 mi
10:50 PM36 °FLight fog.3 mph100%30.18 "Hg4 mi
10:20 PM36 °FFog.3 mph93%30.18 "Hg5 mi
9:50 PM36 °FLight fog.2 mph93%30.18 "Hg4 mi
9:20 PM37 °FFog.2 mph93%30.15 "Hg4 mi
8:50 PM39 °FPassing clouds.1 mph93%30.15 "Hg5 mi
8:20 PM39 °FPassing clouds.No wind93%30.15 "Hg5 mi
7:50 PM41 °FPassing clouds.2 mph93%30.15 "HgN/A
7:20 PM41 °FPartly cloudy.2 mph93%30.15 "Hg6 mi
6:50 PM41 °FPartly cloudy.5 mph93%30.12 "Hg5 mi
6:20 PM41 °FLight rain. Passing clouds.No wind93%30.12 "HgN/A
5:50 PM41 °FPassing clouds.2 mph93%30.12 "HgN/A
5:20 PM41 °FPartly cloudy.3 mph93%30.09 "HgN/A
4:50 PM41 °FRain. Passing clouds.3 mph93%30.09 "Hg4 mi
4:20 PM41 °FLight rain. Partly sunny.2 mph93%30.07 "Hg4 mi
3:50 PM41 °FScattered showers. Partly sunny.2 mph93%30.07 "Hg5 mi
3:20 PM43 °FDrizzle. Broken clouds.2 mph87%30.07 "Hg4 mi
Weather by CustomWeather, © 2015

See weather overviewHow to use our weather pages